Wetterdaten: Dienstag, 05.01.2016
Datum Zeit Temp. A. Feuchte A. Luftdruck Regen Wind Richtung Richtung Sonnenschein ET UV Solar Taupunkt Windchill Windben Empfang
05.01.2016 00:00 -4,2 C 95 % 998,8 hPa 0,0 l/m 2,2 km/h (1 Bft) O-NO 69 0 min 0,000 mm 0,0 UV-I 0 W/m -4,9 C -4,2 C 3,2 km/h (1 Bft) 99,10 %
05.01.2016 00:05 -4,1 C 95 % 998,8 hPa 0,0 l/m 4,4 km/h (1 Bft) NO 43 0 min 0,000 mm 0,0 UV-I 0 W/m -4,8 C -4,1 C 8,0 km/h (2 Bft) 99,06 %
05.01.2016 00:10 -3,9 C 96 % 998,7 hPa 0,0 l/m 4,8 km/h (1 Bft) NO 55 0 min 0,000 mm 0,0 UV-I 0 W/m -4,4 C -3,9 C 8,0 km/h (2 Bft) 100,00 %
05.01.2016 00:15 -3,9 C 95 % 998,7 hPa 0,0 l/m 3,7 km/h (1 Bft) O-NO 67 0 min 0,000 mm 0,0 UV-I 0 W/m -4,6 C -3,9 C 6,4 km/h (2 Bft) 100,00 %
05.01.2016 00:20 -3,9 C 95 % 998,8 hPa 0,0 l/m 4,6 km/h (1 Bft) O-NO 65 0 min 0,000 mm 0,0 UV-I 0 W/m -4,6 C -3,9 C 8,0 km/h (2 Bft) 99,19 %
05.01.2016 00:25 -3,9 C 95 % 999,0 hPa 0,0 l/m 5,2 km/h (1 Bft) NO 53 0 min 0,000 mm 0,0 UV-I 0 W/m -4,6 C -3,9 C 8,0 km/h (2 Bft) 100,00 %
05.01.2016 00:30 -3,9 C 95 % 998,8 hPa 0,0 l/m 5,8 km/h (2 Bft) NO 49 0 min 0,000 mm 0,0 UV-I 0 W/m -4,6 C -3,9 C 8,0 km/h (2 Bft) 100,00 %
05.01.2016 00:35 -3,9 C 95 % 998,8 hPa 0,0 l/m 6,4 km/h (2 Bft) NO 34 0 min 0,000 mm 0,0 UV-I 0 W/m -4,6 C -3,8 C 11,3 km/h (2 Bft) 100,00 %
05.01.2016 00:40 -3,8 C 95 % 998,8 hPa 0,0 l/m 4,9 km/h (1 Bft) NO 38 0 min 0,000 mm 0,0 UV-I 0 W/m -4,5 C -3,8 C 9,7 km/h (2 Bft) 100,00 %
05.01.2016 00:45 -3,8 C 95 % 998,8 hPa 0,0 l/m 4,2 km/h (1 Bft) O-NO 59 0 min 0,000 mm 0,0 UV-I 0 W/m -4,5 C -3,8 C 6,4 km/h (2 Bft) 99,15 %
05.01.2016 00:50 -3,9 C 95 % 998,7 hPa 0,0 l/m 5,5 km/h (1 Bft) NO 43 0 min 0,000 mm 0,0 UV-I 0 W/m -4,6 C -3,9 C 8,0 km/h (2 Bft) 100,00 %
05.01.2016 00:55 -3,9 C 95 % 998,6 hPa 0,0 l/m 6,0 km/h (2 Bft) N-NO 28 0 min 0,000 mm 0,0 UV-I 0 W/m -4,6 C -3,9 C 8,0 km/h (2 Bft) 98,17 %
05.01.2016 01:00 -3,9 C 95 % 998,6 hPa 0,0 l/m 3,6 km/h (1 Bft) N-NO 25 0 min 0,000 mm 0,0 UV-I 0 W/m -4,6 C -3,9 C 8,0 km/h (2 Bft) 99,17 %
05.01.2016 01:05 -4,0 C 95 % 998,7 hPa 0,0 l/m 2,1 km/h (1 Bft) NO 49 0 min 0,000 mm 0,0 UV-I 0 W/m -4,7 C -4,0 C 4,8 km/h (1 Bft) 99,11 %
05.01.2016 01:10 -4,2 C 95 % 998,8 hPa 0,0 l/m 2,4 km/h (1 Bft) NO 48 0 min 0,000 mm 0,0 UV-I 0 W/m -4,9 C -4,2 C 4,8 km/h (1 Bft) 99,17 %
05.01.2016 01:15 -4,2 C 95 % 998,9 hPa 0,0 l/m 1,5 km/h (1 Bft) NO 47 0 min 0,000 mm 0,0 UV-I 0 W/m -4,9 C -4,2 C 3,2 km/h (1 Bft) 100,00 %
05.01.2016 01:20 -4,2 C 95 % 998,8 hPa 0,0 l/m 4,0 km/h (1 Bft) O-NO 71 0 min 0,000 mm 0,0 UV-I 0 W/m -4,9 C -4,2 C 6,4 km/h (2 Bft) 100,00 %
05.01.2016 01:25 -4,3 C 95 % 998,8 hPa 0,0 l/m 3,4 km/h (1 Bft) NO 54 0 min 0,000 mm 0,0 UV-I 0 W/m -5,0 C -4,3 C 6,4 km/h (2 Bft) 96,77 %
05.01.2016 01:30 -4,4 C 95 % 998,8 hPa 0,0 l/m 3,9 km/h (1 Bft) O 80 0 min 0,000 mm 0,0 UV-I 0 W/m -5,1 C -4,4 C 6,4 km/h (2 Bft) 96,61 %
05.01.2016 01:35 -4,4 C 95 % 998,8 hPa 0,0 l/m 2,2 km/h (1 Bft) O 80 0 min 0,000 mm 0,0 UV-I 0 W/m -5,1 C -4,4 C 3,2 km/h (1 Bft) 96,49 %
05.01.2016 01:40 -4,3 C 96 % 998,8 hPa 0,0 l/m 3,9 km/h (1 Bft) O-NO 69 0 min 0,000 mm 0,0 UV-I 0 W/m -4,8 C -4,3 C 6,4 km/h (2 Bft) 95,87 %
05.01.2016 01:45 -4,3 C 96 % 998,8 hPa 0,0 l/m 4,5 km/h (1 Bft) NO 54 0 min 0,000 mm 0,0 UV-I 0 W/m -4,8 C -4,3 C 8,0 km/h (2 Bft) 97,25 %
05.01.2016 01:50 -4,3 C 96 % 998,8 hPa 0,0 l/m 4,1 km/h (1 Bft) NO 44 0 min 0,000 mm 0,0 UV-I 0 W/m -4,8 C -4,3 C 6,4 km/h (2 Bft) 97,56 %
05.01.2016 01:55 -4,4 C 95 % 998,8 hPa 0,0 l/m 5,4 km/h (1 Bft) N-NO 32 0 min 0,000 mm 0,0 UV-I 0 W/m -5,1 C -4,4 C 8,0 km/h (2 Bft) 98,35 %
05.01.2016 02:00 -4,3 C 95 % 998,9 hPa 0,0 l/m 5,0 km/h (1 Bft) O-NO 65 0 min 0,000 mm 0,0 UV-I 0 W/m -5,0 C -4,3 C 8,0 km/h (2 Bft) 97,22 %
05.01.2016 02:05 -4,4 C 95 % 998,9 hPa 0,0 l/m 4,7 km/h (1 Bft) O-NO 57 0 min 0,000 mm 0,0 UV-I 0 W/m -5,1 C -4,4 C 8,0 km/h (2 Bft) 97,52 %
05.01.2016 02:10 -4,3 C 95 % 998,9 hPa 0,0 l/m 4,4 km/h (1 Bft) O-NO 61 0 min 0,000 mm 0,0 UV-I 0 W/m -5,0 C -4,3 C 6,4 km/h (2 Bft) 100,00 %
05.01.2016 02:15 -4,3 C 95 % 998,8 hPa 0,0 l/m 4,6 km/h (1 Bft) NO 48 0 min 0,000 mm 0,0 UV-I 0 W/m -5,0 C -4,3 C 8,0 km/h (2 Bft) 97,22 %
05.01.2016 02:20 -4,3 C 95 % 998,8 hPa 0,0 l/m 3,6 km/h (1 Bft) O-NO 61 0 min 0,000 mm 0,0 UV-I 0 W/m -5,0 C -4,3 C 6,4 km/h (2 Bft) 99,19 %
05.01.2016 02:25 -4,3 C 95 % 998,9 hPa 0,0 l/m 3,5 km/h (1 Bft) O-NO 78 0 min 0,000 mm 0,0 UV-I 0 W/m -5,0 C -4,3 C 6,4 km/h (2 Bft) 99,08 %
05.01.2016 02:30 -4,3 C 95 % 999,0 hPa 0,0 l/m 1,1 km/h (1 Bft) O-NO 78 0 min 0,000 mm 0,0 UV-I 0 W/m -5,0 C -4,3 C 3,2 km/h (1 Bft) 100,00 %
05.01.2016 02:35 -4,3 C 95 % 999,0 hPa 0,0 l/m 1,5 km/h (1 Bft) O-NO 78 0 min 0,000 mm 0,0 UV-I 0 W/m -5,0 C -4,3 C 3,2 km/h (1 Bft) 100,00 %
05.01.2016 02:40 -4,4 C 95 % 999,0 hPa 0,0 l/m 3,3 km/h (1 Bft) O-NO 78 0 min 0,000 mm 0,0 UV-I 0 W/m -5,1 C -4,4 C 4,8 km/h (1 Bft) 100,00 %
05.01.2016 02:45 -4,7 C 95 % 999,1 hPa 0,0 l/m 3,9 km/h (1 Bft) NO 38 0 min 0,000 mm 0,0 UV-I 0 W/m -5,4 C -4,7 C 6,4 km/h (2 Bft) 98,31 %
05.01.2016 02:50 -4,7 C 95 % 999,1 hPa 0,0 l/m 3,7 km/h (1 Bft) NO 37 0 min 0,000 mm 0,0 UV-I 0 W/m -5,4 C -4,7 C 6,4 km/h (2 Bft) 98,37 %
05.01.2016 02:55 -4,7 C 95 % 999,1 hPa 0,0 l/m 3,4 km/h (1 Bft) O-NO 59 0 min 0,000 mm 0,0 UV-I 0 W/m -5,4 C -4,7 C 4,8 km/h (1 Bft) 100,00 %
05.01.2016 03:00 -4,7 C 95 % 999,1 hPa 0,0 l/m 2,6 km/h (1 Bft) O-NO 59 0 min 0,000 mm 0,0 UV-I 0 W/m -5,4 C -4,7 C 4,8 km/h (1 Bft) 99,17 %
05.01.2016 03:05 -4,8 C 95 % 999,3 hPa 0,0 l/m 1,6 km/h (1 Bft) O 79 0 min 0,000 mm 0,0 UV-I 0 W/m -5,5 C -4,8 C 4,8 km/h (1 Bft) 100,00 %
05.01.2016 03:10 -4,8 C 95 % 999,1 hPa 0,0 l/m 1,3 km/h (1 Bft) O 79 0 min 0,000 mm 0,0 UV-I 0 W/m -5,5 C -4,8 C 3,2 km/h (1 Bft) 100,00 %
05.01.2016 03:15 -4,7 C 96 % 999,1 hPa 0,0 l/m 2,9 km/h (1 Bft) O-NO 63 0 min 0,000 mm 0,0 UV-I 0 W/m -5,2 C -4,7 C 6,4 km/h (2 Bft) 98,31 %
05.01.2016 03:20 -4,7 C 96 % 999,0 hPa 0,0 l/m 3,4 km/h (1 Bft) NO 46 0 min 0,000 mm 0,0 UV-I 0 W/m -5,2 C -4,7 C 6,4 km/h (2 Bft) 100,00 %
05.01.2016 03:25 -4,7 C 95 % 998,9 hPa 0,0 l/m 3,7 km/h (1 Bft) NO 35 0 min 0,000 mm 0,0 UV-I 0 W/m -5,4 C -4,7 C 6,4 km/h (2 Bft) 100,00 %
05.01.2016 03:30 -4,8 C 95 % 998,7 hPa 0,0 l/m 5,8 km/h (2 Bft) NO 48 0 min 0,000 mm 0,0 UV-I 0 W/m -5,5 C -4,8 C 8,0 km/h (2 Bft) 95,41 %
05.01.2016 03:35 -5,0 C 95 % 998,7 hPa 0,0 l/m 4,5 km/h (1 Bft) O-NO 63 0 min 0,000 mm 0,0 UV-I 0 W/m -5,7 C -5,0 C 8,0 km/h (2 Bft) 97,56 %
05.01.2016 03:40 -5,0 C 95 % 998,7 hPa 0,0 l/m 3,5 km/h (1 Bft) NO 49 0 min 0,000 mm 0,0 UV-I 0 W/m -5,7 C -5,0 C 4,8 km/h (1 Bft) 96,43 %
05.01.2016 03:45 -5,1 C 95 % 998,8 hPa 0,0 l/m 4,1 km/h (1 Bft) O-NO 63 0 min 0,000 mm 0,0 UV-I 0 W/m -5,8 C -5,1 C 6,4 km/h (2 Bft) 96,58 %
05.01.2016 03:50 -5,2 C 96 % 998,8 hPa 0,0 l/m 3,3 km/h (1 Bft) O-NO 72 0 min 0,000 mm 0,0 UV-I 0 W/m -5,7 C -5,2 C 4,8 km/h (1 Bft) 98,26 %
05.01.2016 03:55 -5,2 C 96 % 998,8 hPa 0,0 l/m 2,9 km/h (1 Bft) O-NO 71 0 min 0,000 mm 0,0 UV-I 0 W/m -5,7 C -5,2 C 4,8 km/h (1 Bft) 97,58 %
05.01.2016 04:00 -5,6 C 95 % 998,7 hPa 0,0 l/m 3,6 km/h (1 Bft) NO 34 0 min 0,000 mm 0,0 UV-I 0 W/m -6,3 C -5,6 C 6,4 km/h (2 Bft) 96,40 %
05.01.2016 04:05 -5,7 C 95 % 998,8 hPa 0,0 l/m 3,7 km/h (1 Bft) NO 42 0 min 0,000 mm 0,0 UV-I 0 W/m -6,4 C -5,7 C 6,4 km/h (2 Bft) 96,39 %
05.01.2016 04:10 -5,7 C 96 % 998,7 hPa 0,0 l/m 2,8 km/h (1 Bft) NO 42 0 min 0,000 mm 0,0 UV-I 0 W/m -6,2 C -5,7 C 4,8 km/h (1 Bft) 99,13 %
05.01.2016 04:15 -5,7 C 96 % 998,6 hPa 0,0 l/m 2,9 km/h (1 Bft) NO 42 0 min 0,000 mm 0,0 UV-I 0 W/m -6,2 C -5,7 C 4,8 km/h (1 Bft) 100,00 %
05.01.2016 04:20 -5,8 C 96 % 998,6 hPa 0,0 l/m 3,6 km/h (1 Bft) NO 42 0 min 0,000 mm 0,0 UV-I 0 W/m -6,3 C -5,8 C 4,8 km/h (1 Bft) 100,00 %
05.01.2016 04:25 -5,7 C 96 % 998,6 hPa 0,0 l/m 3,4 km/h (1 Bft) NO 46 0 min 0,000 mm 0,0 UV-I 0 W/m -6,2 C -5,7 C 4,8 km/h (1 Bft) 96,58 %
05.01.2016 04:30 -5,7 C 96 % 998,6 hPa 0,0 l/m 4,0 km/h (1 Bft) O-NO 61 0 min 0,000 mm 0,0 UV-I 0 W/m -6,2 C -5,7 C 6,4 km/h (2 Bft) 99,08 %
05.01.2016 04:35 -5,8 C 96 % 998,5 hPa 0,0 l/m 2,7 km/h (1 Bft) O-NO 64 0 min 0,000 mm 0,0 UV-I 0 W/m -6,3 C -5,8 C 4,8 km/h (1 Bft) 96,85 %
05.01.2016 04:40 -5,8 C 96 % 998,4 hPa 0,0 l/m 2,6 km/h (1 Bft) O-NO 63 0 min 0,000 mm 0,0 UV-I 0 W/m -6,3 C -5,8 C 4,8 km/h (1 Bft) 98,20 %
05.01.2016 04:45 -5,6 C 96 % 998,4 hPa 0,0 l/m 3,3 km/h (1 Bft) O-NO 74 0 min 0,000 mm 0,0 UV-I 0 W/m -6,1 C -5,6 C 4,8 km/h (1 Bft) 100,00 %
05.01.2016 04:50 -5,4 C 96 % 998,3 hPa 0,0 l/m 3,6 km/h (1 Bft) O-NO 76 0 min 0,000 mm 0,0 UV-I 0 W/m -5,9 C -5,4 C 6,4 km/h (2 Bft) 100,00 %
05.01.2016 04:55 -5,6 C 95 % 998,3 hPa 0,0 l/m 4,0 km/h (1 Bft) O-NO 71 0 min 0,000 mm 0,0 UV-I 0 W/m -6,3 C -5,6 C 6,4 km/h (2 Bft) 100,00 %
05.01.2016 05:00 -6,0 C 95 % 998,3 hPa 0,0 l/m 5,0 km/h (1 Bft) N-NO 21 0 min 0,000 mm 0,0 UV-I 0 W/m -6,7 C -6,0 C 8,0 km/h (2 Bft) 98,31 %
05.01.2016 05:05 -6,2 C 95 % 998,3 hPa 0,0 l/m 2,9 km/h (1 Bft) N-NO 32 0 min 0,000 mm 0,0 UV-I 0 W/m -6,9 C -6,2 C 6,4 km/h (2 Bft) 100,00 %
05.01.2016 05:10 -6,2 C 95 % 998,3 hPa 0,0 l/m 1,9 km/h (1 Bft) NO 37 0 min 0,000 mm 0,0 UV-I 0 W/m -6,9 C -6,2 C 4,8 km/h (1 Bft) 99,17 %
05.01.2016 05:15 -6,1 C 96 % 998,3 hPa 0,0 l/m 2,1 km/h (1 Bft) NO 43 0 min 0,000 mm 0,0 UV-I 0 W/m -6,6 C -6,1 C 4,8 km/h (1 Bft) 100,00 %
05.01.2016 05:20 -6,4 C 95 % 998,4 hPa 0,0 l/m 1,4 km/h (1 Bft) NO 51 0 min 0,000 mm 0,0 UV-I 0 W/m -7,1 C -6,4 C 3,2 km/h (1 Bft) 100,00 %
05.01.2016 05:25 -6,3 C 96 % 998,3 hPa 0,0 l/m 3,2 km/h (1 Bft) NO 55 0 min 0,000 mm 0,0 UV-I 0 W/m -6,8 C -6,3 C 6,4 km/h (2 Bft) 99,19 %
05.01.2016 05:30 -6,0 C 96 % 998,2 hPa 0,0 l/m 2,6 km/h (1 Bft) NO 55 0 min 0,000 mm 0,0 UV-I 0 W/m -6,5 C -6,0 C 4,8 km/h (1 Bft) 99,11 %
05.01.2016 05:35 -6,1 C 96 % 998,3 hPa 0,0 l/m 2,1 km/h (1 Bft) NO 55 0 min 0,000 mm 0,0 UV-I 0 W/m -6,6 C -6,1 C 3,2 km/h (1 Bft) 98,29 %
05.01.2016 05:40 -6,2 C 96 % 998,3 hPa 0,0 l/m 2,2 km/h (1 Bft) NO 55 0 min 0,000 mm 0,0 UV-I 0 W/m -6,7 C -6,2 C 3,2 km/h (1 Bft) 100,00 %
05.01.2016 05:45 -6,4 C 95 % 998,4 hPa 0,0 l/m 2,0 km/h (1 Bft) NO 55 0 min 0,000 mm 0,0 UV-I 0 W/m -7,1 C -6,4 C 3,2 km/h (1 Bft) 98,35 %
05.01.2016 05:50 -7,0 C 94 % 998,4 hPa 0,0 l/m 0,4 km/h (0 Bft) NO 53 0 min 0,000 mm 0,0 UV-I 0 W/m -7,8 C -7,0 C 1,6 km/h (1 Bft) 98,26 %
05.01.2016 05:55 -7,3 C 94 % 998,4 hPa 0,0 l/m 1,3 km/h (1 Bft) NO 53 0 min 0,000 mm 0,0 UV-I 0 W/m -8,1 C -7,3 C 3,2 km/h (1 Bft) 96,55 %
05.01.2016 06:00 -7,4 C 94 % 998,4 hPa 0,0 l/m 0,6 km/h (0 Bft) NO 53 0 min 0,000 mm 0,0 UV-I 0 W/m -8,2 C -7,4 C 1,6 km/h (1 Bft) 97,30 %
05.01.2016 06:05 -7,6 C 94 % 998,4 hPa 0,0 l/m 0,0 km/h (0 Bft) NO 53 0 min 0,000 mm 0,0 UV-I 0 W/m -8,4 C -7,6 C 0,0 km/h (0 Bft) 96,52 %
05.01.2016 06:10 -7,7 C 95 % 998,4 hPa 0,0 l/m 0,2 km/h (0 Bft) NO 53 0 min 0,000 mm 0,0 UV-I 0 W/m -8,4 C -7,7 C 1,6 km/h (1 Bft) 96,83 %
05.01.2016 06:15 -7,4 C 96 % 998,4 hPa 0,0 l/m 0,0 km/h (0 Bft) NO 53 0 min 0,000 mm 0,0 UV-I 0 W/m -7,9 C -7,4 C 0,0 km/h (0 Bft) 98,21 %
05.01.2016 06:20 -7,3 C 96 % 998,4 hPa 0,0 l/m 0,0 km/h (0 Bft) NO 53 0 min 0,000 mm 0,0 UV-I 0 W/m -7,8 C -7,3 C 0,0 km/h (0 Bft) 96,77 %
05.01.2016 06:25 -7,3 C 96 % 998,5 hPa 0,0 l/m 0,0 km/h (0 Bft) NO 53 0 min 0,000 mm 0,0 UV-I 0 W/m -7,8 C -7,3 C 0,0 km/h (0 Bft) 96,30 %
05.01.2016 06:30 -7,4 C 95 % 998,5 hPa 0,0 l/m 0,3 km/h (0 Bft) NO 53 0 min 0,000 mm 0,0 UV-I 0 W/m -8,1 C -7,4 C 1,6 km/h (1 Bft) 100,00 %
05.01.2016 06:35 -7,6 C 95 % 998,5 hPa 0,0 l/m 0,9 km/h (0 Bft) NO 53 0 min 0,000 mm 0,0 UV-I 0 W/m -8,3 C -7,6 C 3,2 km/h (1 Bft) 99,13 %
05.01.2016 06:40 -7,6 C 95 % 998,5 hPa 0,0 l/m 0,8 km/h (0 Bft) NO 53 0 min 0,000 mm 0,0 UV-I 0 W/m -8,3 C -7,6 C 1,6 km/h (1 Bft) 99,17 %
05.01.2016 06:45 -7,7 C 95 % 998,5 hPa 0,0 l/m 0,3 km/h (0 Bft) NO 53 0 min 0,000 mm 0,0 UV-I 0 W/m -8,4 C -7,7 C 1,6 km/h (1 Bft) 98,21 %
05.01.2016 06:50 -7,6 C 95 % 998,5 hPa 0,0 l/m 0,0 km/h (0 Bft) NO 53 0 min 0,000 mm 0,0 UV-I 0 W/m -8,3 C -7,6 C 0,0 km/h (0 Bft) 99,11 %
05.01.2016 06:55 -7,7 C 94 % 998,5 hPa 0,0 l/m 0,0 km/h (0 Bft) NO 53 0 min 0,000 mm 0,0 UV-I 0 W/m -8,5 C -7,7 C 1,6 km/h (1 Bft) 100,00 %
05.01.2016 07:00 -7,8 C 95 % 998,5 hPa 0,0 l/m 1,4 km/h (1 Bft) NO 53 0 min 0,000 mm 0,0 UV-I 0 W/m -8,5 C -7,8 C 3,2 km/h (1 Bft) 100,00 %
05.01.2016 07:05 -7,8 C 95 % 998,5 hPa 0,0 l/m 0,7 km/h (0 Bft) NO 53 0 min 0,000 mm 0,0 UV-I 0 W/m -8,5 C -7,8 C 3,2 km/h (1 Bft) 99,05 %
05.01.2016 07:10 -7,9 C 94 % 998,4 hPa 0,0 l/m 0,0 km/h (0 Bft) NO 53 0 min 0,000 mm 0,0 UV-I 0 W/m -8,7 C -7,9 C 0,0 km/h (0 Bft) 100,00 %
05.01.2016 07:15 -8,5 C 92 % 998,4 hPa 0,0 l/m 0,4 km/h (0 Bft) NO 53 0 min 0,000 mm 0,0 UV-I 0 W/m -9,6 C -8,5 C 3,2 km/h (1 Bft) 99,17 %
05.01.2016 07:20 -8,6 C 94 % 998,4 hPa 0,0 l/m 2,5 km/h (1 Bft) O 83 0 min 0,000 mm 0,0 UV-I 0 W/m -9,4 C -8,6 C 3,2 km/h (1 Bft) 99,15 %
05.01.2016 07:25 -8,6 C 94 % 998,4 hPa 0,0 l/m 0,8 km/h (0 Bft) O 83 0 min 0,000 mm 0,0 UV-I 0 W/m -9,4 C -8,6 C 3,2 km/h (1 Bft) 98,21 %
05.01.2016 07:30 -8,6 C 94 % 998,4 hPa 0,0 l/m 0,0 km/h (0 Bft) O 83 0 min 0,000 mm 0,0 UV-I 0 W/m -9,4 C -8,6 C 0,0 km/h (0 Bft) 99,17 %
05.01.2016 07:35 -8,5 C 95 % 998,4 hPa 0,0 l/m 0,0 km/h (0 Bft) O 83 0 min 0,000 mm 0,0 UV-I 0 W/m -9,2 C -8,5 C 0,0 km/h (0 Bft) 98,17 %
05.01.2016 07:40 -8,4 C 94 % 998,4 hPa 0,0 l/m 0,1 km/h (0 Bft) O 83 0 min 0,000 mm 0,0 UV-I 0 W/m -9,2 C -8,4 C 1,6 km/h (1 Bft) 100,00 %
05.01.2016 07:45 -8,4 C 94 % 998,4 hPa 0,0 l/m 0,4 km/h (0 Bft) O 83 0 min 0,000 mm 0,0 UV-I 0 W/m -9,2 C -8,4 C 1,6 km/h (1 Bft) 99,15 %
05.01.2016 07:50 -8,4 C 94 % 998,4 hPa 0,0 l/m 0,0 km/h (0 Bft) O 83 0 min 0,000 mm 0,0 UV-I 0 W/m -9,2 C -8,4 C 0,0 km/h (0 Bft) 100,00 %
05.01.2016 07:55 -8,6 C 94 % 998,6 hPa 0,0 l/m 1,4 km/h (1 Bft) S 180 0 min 0,000 mm 0,0 UV-I 0 W/m -9,4 C -8,6 C 4,8 km/h (1 Bft) 99,13 %
05.01.2016 08:00 -8,9 C 93 % 998,7 hPa 0,0 l/m 3,3 km/h (1 Bft) S-SW 208 0 min 0,000 mm 0,0 UV-I 5 W/m -9,8 C -8,9 C 6,4 km/h (2 Bft) 100,00 %
05.01.2016 08:05 -8,9 C 94 % 998,9 hPa 0,0 l/m 3,9 km/h (1 Bft) S-SW 208 0 min 0,000 mm 0,0 UV-I 5 W/m -9,7 C -8,9 C 4,8 km/h (1 Bft) 100,00 %
05.01.2016 08:10 -8,8 C 94 % 999,0 hPa 0,0 l/m 4,0 km/h (1 Bft) SW 223 0 min 0,000 mm 0,0 UV-I 8 W/m -9,6 C -8,8 C 4,8 km/h (1 Bft) 99,22 %
05.01.2016 08:15 -8,6 C 95 % 999,0 hPa 0,0 l/m 4,3 km/h (1 Bft) S 182 0 min 0,000 mm 0,0 UV-I 9 W/m -9,3 C -8,6 C 6,4 km/h (2 Bft) 100,00 %
05.01.2016 08:20 -8,6 C 94 % 999,0 hPa 0,0 l/m 2,5 km/h (1 Bft) S 172 0 min 0,000 mm 0,0 UV-I 9 W/m -9,4 C -8,6 C 4,8 km/h (1 Bft) 95,54 %
05.01.2016 08:25 -8,5 C 94 % 999,0 hPa 0,0 l/m 1,5 km/h (1 Bft) S 172 0 min 0,000 mm 0,0 UV-I 11 W/m -9,3 C -8,5 C 4,8 km/h (1 Bft) 96,75 %
05.01.2016 08:30 -8,4 C 95 % 999,2 hPa 0,0 l/m 3,1 km/h (1 Bft) S 189 0 min 0,000 mm 0,0 UV-I 10 W/m -9,1 C -8,4 C 4,8 km/h (1 Bft) 96,52 %
05.01.2016 08:35 -8,4 C 94 % 999,1 hPa 0,0 l/m 3,3 km/h (1 Bft) S-SW 200 0 min 0,000 mm 0,0 UV-I 17 W/m -9,2 C -8,4 C 4,8 km/h (1 Bft) 98,21 %
05.01.2016 08:40 -8,5 C 94 % 999,1 hPa 0,0 l/m 2,4 km/h (1 Bft) S-SW 199 0 min 0,000 mm 0,0 UV-I 17 W/m -9,3 C -8,5 C 4,8 km/h (1 Bft) 96,49 %
05.01.2016 08:45 -8,6 C 94 % 999,1 hPa 0,0 l/m 0,9 km/h (0 Bft) S-SW 198 0 min 0,000 mm 0,0 UV-I 19 W/m -9,4 C -8,6 C 3,2 km/h (1 Bft) 95,16 %
05.01.2016 08:50 -8,3 C 95 % 999,2 hPa 0,0 l/m 0,7 km/h (0 Bft) S 180 0 min 0,000 mm 0,0 UV-I 37 W/m -9,0 C -8,3 C 3,2 km/h (1 Bft) 97,44 %
05.01.2016 08:55 -8,1 C 95 % 999,1 hPa 0,0 l/m 1,0 km/h (0 Bft) S 191 0 min 0,000 mm 0,0 UV-I 63 W/m -8,8 C -8,1 C 1,6 km/h (1 Bft) 94,50 %
05.01.2016 09:00 -7,9 C 94 % 999,1 hPa 0,0 l/m 0,2 km/h (0 Bft) S 191 0 min 0,000 mm 0,0 UV-I 68 W/m -8,7 C -7,9 C 1,6 km/h (1 Bft) 98,39 %
05.01.2016 09:05 -7,6 C 95 % 999,1 hPa 0,0 l/m 1,4 km/h (1 Bft) S 182 0 min 0,000 mm 0,0 UV-I 78 W/m -8,3 C -7,6 C 3,2 km/h (1 Bft) 99,15 %
05.01.2016 09:10 -7,3 C 95 % 999,0 hPa 0,0 l/m 1,5 km/h (1 Bft) S 171 0 min 0,000 mm 0,0 UV-I 80 W/m -8,0 C -7,3 C 3,2 km/h (1 Bft) 98,31 %
05.01.2016 09:15 -7,2 C 95 % 999,1 hPa 0,0 l/m 0,4 km/h (0 Bft) S 171 0 min 0,000 mm 0,0 UV-I 73 W/m -7,9 C -7,2 C 1,6 km/h (1 Bft) 100,00 %
05.01.2016 09:20 -7,3 C 93 % 999,4 hPa 0,0 l/m 1,2 km/h (1 Bft) W-NW 284 0 min 0,000 mm 0,0 UV-I 67 W/m -8,2 C -7,3 C 3,2 km/h (1 Bft) 100,00 %
05.01.2016 09:25 -7,6 C 94 % 999,5 hPa 0,0 l/m 0,7 km/h (0 Bft) W-NW 284 0 min 0,000 mm 0,0 UV-I 53 W/m -8,4 C -7,6 C 1,6 km/h (1 Bft) 100,00 %
05.01.2016 09:30 -7,6 C 94 % 999,4 hPa 0,0 l/m 0,3 km/h (0 Bft) W-NW 284 0 min 0,000 mm 0,0 UV-I 46 W/m -8,4 C -7,6 C 1,6 km/h (1 Bft) 99,08 %
05.01.2016 09:35 -7,4 C 94 % 999,3 hPa 0,0 l/m 2,2 km/h (1 Bft) SW 215 0 min 0,000 mm 0,0 UV-I 63 W/m -8,2 C -7,4 C 3,2 km/h (1 Bft) 98,45 %
05.01.2016 09:40 -7,1 C 95 % 999,4 hPa 0,0 l/m 1,4 km/h (1 Bft) SW 215 0 min 0,000 mm 0,0 UV-I 91 W/m -7,8 C -7,1 C 3,2 km/h (1 Bft) 98,17 %
05.01.2016 09:45 -6,6 C 96 % 999,7 hPa 0,0 l/m 2,0 km/h (1 Bft) NW 307 0 min 0,000 mm 0,0 UV-I 89 W/m -7,1 C -6,6 C 4,8 km/h (1 Bft) 99,19 %
05.01.2016 09:50 -6,4 C 95 % 999,5 hPa 0,0 l/m 0,4 km/h (0 Bft) W-NW 286 0 min 0,000 mm 0,0 UV-I 95 W/m -7,1 C -6,4 C 4,8 km/h (1 Bft) 100,00 %
05.01.2016 09:55 -6,1 C 95 % 999,5 hPa 0,0 l/m 0,1 km/h (0 Bft) W-NW 286 0 min 0,000 mm 0,0 UV-I 112 W/m -6,8 C -6,1 C 1,6 km/h (1 Bft) 100,00 %
05.01.2016 10:00 -5,7 C 96 % 999,6 hPa 0,0 l/m 1,0 km/h (0 Bft) W-NW 286 0 min 0,025 mm 0,0 UV-I 107 W/m -6,2 C -5,7 C 1,6 km/h (1 Bft) 98,20 %
05.01.2016 10:05 -5,4 C 95 % 999,5 hPa 0,0 l/m 0,5 km/h (0 Bft) W-NW 286 0 min 0,000 mm 0,0 UV-I 84 W/m -6,1 C -5,4 C 1,6 km/h (1 Bft) 100,00 %
05.01.2016 10:10 -5,3 C 96 % 999,7 hPa 0,0 l/m 0,0 km/h (0 Bft) W-NW 286 0 min 0,000 mm 0,0 UV-I 74 W/m -5,8 C -5,3 C 0,0 km/h (0 Bft) 100,00 %
05.01.2016 10:15 -5,2 C 96 % 999,6 hPa 0,0 l/m 0,1 km/h (0 Bft) W-NW 286 0 min 0,000 mm 0,0 UV-I 78 W/m -5,7 C -5,2 C 1,6 km/h (1 Bft) 99,13 %
05.01.2016 10:20 -5,2 C 95 % 999,5 hPa 0,0 l/m 0,0 km/h (0 Bft) W-NW 286 0 min 0,000 mm 0,0 UV-I 49 W/m -5,9 C -5,2 C 0,0 km/h (0 Bft) 100,00 %
05.01.2016 10:25 -5,3 C 95 % 999,6 hPa 0,0 l/m 0,0 km/h (0 Bft) W-NW 286 0 min 0,000 mm 0,0 UV-I 33 W/m -6,0 C -5,3 C 1,6 km/h (1 Bft) 96,30 %
05.01.2016 10:30 -5,4 C 95 % 999,6 hPa 0,0 l/m 0,2 km/h (0 Bft) W-NW 286 0 min 0,000 mm 0,0 UV-I 39 W/m -6,1 C -5,4 C 1,6 km/h (1 Bft) 98,35 %
05.01.2016 10:35 -5,6 C 95 % 999,7 hPa 0,0 l/m 0,9 km/h (0 Bft) W-NW 286 0 min 0,000 mm 0,0 UV-I 61 W/m -6,3 C -5,6 C 3,2 km/h (1 Bft) 96,61 %
05.01.2016 10:40 -5,6 C 95 % 999,9 hPa 0,0 l/m 1,1 km/h (1 Bft) W-NW 286 0 min 0,000 mm 0,0 UV-I 58 W/m -6,3 C -5,6 C 3,2 km/h (1 Bft) 96,58 %
05.01.2016 10:45 -5,4 C 95 % 999,8 hPa 0,0 l/m 0,3 km/h (0 Bft) W-NW 286 0 min 0,000 mm 0,0 UV-I 78 W/m -6,1 C -5,4 C 3,2 km/h (1 Bft) 97,46 %
05.01.2016 10:50 -5,3 C 95 % 999,8 hPa 0,0 l/m 0,0 km/h (0 Bft) W-NW 286 0 min 0,000 mm 0,0 UV-I 51 W/m -6,0 C -5,3 C 0,0 km/h (0 Bft) 97,50 %
05.01.2016 10:55 -5,2 C 96 % 999,9 hPa 0,0 l/m 0,0 km/h (0 Bft) W-NW 286 0 min 0,000 mm 0,0 UV-I 55 W/m -5,7 C -5,2 C 1,6 km/h (1 Bft) 99,15 %
05.01.2016 11:00 -5,2 C 95 % 999,8 hPa 0,0 l/m 0,2 km/h (0 Bft) W-NW 286 0 min 0,026 mm 0,0 UV-I 66 W/m -5,9 C -5,2 C 1,6 km/h (1 Bft) 99,11 %
05.01.2016 11:05 -5,1 C 95 % 999,8 hPa 0,0 l/m 0,2 km/h (0 Bft) W-NW 286 0 min 0,000 mm 0,0 UV-I 68 W/m -5,8 C -5,1 C 1,6 km/h (1 Bft) 98,25 %
05.01.2016 11:10 -5,1 C 95 % 999,9 hPa 0,0 l/m 0,5 km/h (0 Bft) W-NW 286 0 min 0,000 mm 0,0 UV-I 74 W/m -5,8 C -5,1 C 1,6 km/h (1 Bft) 100,00 %
05.01.2016 11:15 -4,9 C 95 % 1000,1 hPa 0,0 l/m 1,8 km/h (1 Bft) W-NW 286 0 min 0,000 mm 0,0 UV-I 82 W/m -5,6 C -4,9 C 3,2 km/h (1 Bft) 99,11 %
05.01.2016 11:20 -4,8 C 95 % 1000,2 hPa 0,0 l/m 2,7 km/h (1 Bft) W-SW 248 0 min 0,000 mm 0,0 UV-I 72 W/m -5,5 C -4,8 C 6,4 km/h (2 Bft) 100,00 %
05.01.2016 11:25 -4,8 C 95 % 1000,2 hPa 0,0 l/m 4,5 km/h (1 Bft) SW 226 0 min 0,000 mm 0,0 UV-I 73 W/m -5,5 C -4,8 C 6,4 km/h (2 Bft) 99,11 %
05.01.2016 11:30 -4,8 C 95 % 1000,1 hPa 0,0 l/m 2,8 km/h (1 Bft) SW 232 0 min 0,000 mm 0,0 UV-I 75 W/m -5,5 C -4,8 C 6,4 km/h (2 Bft) 98,29 %
05.01.2016 11:35 -4,8 C 95 % 1000,1 hPa 0,0 l/m 3,6 km/h (1 Bft) W-SW 248 0 min 0,000 mm 0,0 UV-I 74 W/m -5,5 C -4,8 C 6,4 km/h (2 Bft) 98,26 %
05.01.2016 11:40 -4,7 C 95 % 1000,0 hPa 0,0 l/m 3,3 km/h (1 Bft) W-SW 249 0 min 0,000 mm 0,0 UV-I 76 W/m -5,4 C -4,7 C 4,8 km/h (1 Bft) 99,13 %
05.01.2016 11:45 -4,7 C 95 % 1000,0 hPa 0,0 l/m 1,7 km/h (1 Bft) W-SW 240 0 min 0,000 mm 0,0 UV-I 72 W/m -5,4 C -4,7 C 4,8 km/h (1 Bft) 98,33 %
05.01.2016 11:50 -4,7 C 95 % 1000,0 hPa 0,0 l/m 2,9 km/h (1 Bft) S-SW 199 0 min 0,000 mm 0,0 UV-I 68 W/m -5,4 C -4,7 C 6,4 km/h (2 Bft) 97,58 %
05.01.2016 11:55 -4,7 C 95 % 1000,0 hPa 0,0 l/m 3,5 km/h (1 Bft) SW 216 0 min 0,000 mm 0,0 UV-I 63 W/m -5,4 C -4,7 C 6,4 km/h (2 Bft) 100,00 %
05.01.2016 12:00 -4,7 C 95 % 1000,0 hPa 0,0 l/m 2,2 km/h (1 Bft) S-SW 202 0 min 0,025 mm 0,0 UV-I 67 W/m -5,4 C -4,7 C 4,8 km/h (1 Bft) 100,00 %
05.01.2016 12:05 -4,6 C 95 % 999,9 hPa 0,0 l/m 1,3 km/h (1 Bft) S-SW 201 0 min 0,000 mm 0,0 UV-I 73 W/m -5,3 C -4,6 C 4,8 km/h (1 Bft) 100,00 %
05.01.2016 12:10 -4,6 C 95 % 999,9 hPa 0,0 l/m 2,0 km/h (1 Bft) S-SW 199 0 min 0,000 mm 0,0 UV-I 84 W/m -5,3 C -4,6 C 6,4 km/h (2 Bft) 97,50 %
05.01.2016 12:15 -4,5 C 95 % 999,9 hPa 0,0 l/m 1,2 km/h (1 Bft) S-SW 211 0 min 0,000 mm 0,0 UV-I 88 W/m -5,2 C -4,5 C 3,2 km/h (1 Bft) 96,61 %
05.01.2016 12:20 -4,4 C 96 % 1000,0 hPa 0,0 l/m 3,3 km/h (1 Bft) S-SW 209 0 min 0,000 mm 0,0 UV-I 88 W/m -4,9 C -4,4 C 4,8 km/h (1 Bft) 96,61 %
05.01.2016 12:25 -4,4 C 95 % 1000,1 hPa 0,0 l/m 3,0 km/h (1 Bft) S-SW 198 0 min 0,000 mm 0,0 UV-I 85 W/m -5,1 C -4,4 C 4,8 km/h (1 Bft) 96,67 %
05.01.2016 12:30 -4,3 C 96 % 1000,2 hPa 0,0 l/m 3,6 km/h (1 Bft) S 187 0 min 0,000 mm 0,0 UV-I 72 W/m -4,8 C -4,3 C 8,0 km/h (2 Bft) 98,21 %
05.01.2016 12:35 -4,2 C 96 % 1000,1 hPa 0,0 l/m 4,3 km/h (1 Bft) S 188 0 min 0,000 mm 0,0 UV-I 78 W/m -4,7 C -4,2 C 8,0 km/h (2 Bft) 97,56 %
05.01.2016 12:40 -4,1 C 96 % 1000,1 hPa 0,0 l/m 4,1 km/h (1 Bft) SW 236 0 min 0,000 mm 0,0 UV-I 87 W/m -4,6 C -4,1 C 8,0 km/h (2 Bft) 97,46 %
05.01.2016 12:45 -4,0 C 96 % 1000,2 hPa 0,0 l/m 3,9 km/h (1 Bft) S 173 0 min 0,000 mm 0,0 UV-I 82 W/m -4,5 C -4,0 C 9,7 km/h (2 Bft) 98,97 %
05.01.2016 13:00 -3,9 C 95 % 1000,1 hPa 0,0 l/m 3,2 km/h (1 Bft) S-SO 164 0 min 0,026 mm 0,0 UV-I 65 W/m -4,6 C -3,9 C 4,8 km/h (1 Bft) 98,90 %
05.01.2016 13:05 -3,8 C 96 % 1000,1 hPa 0,0 l/m 2,9 km/h (1 Bft) S 181 0 min 0,000 mm 0,0 UV-I 57 W/m -4,3 C -3,8 C 6,4 km/h (2 Bft) 99,12 %
05.01.2016 13:10 -3,8 C 96 % 1000,0 hPa 0,0 l/m 2,0 km/h (1 Bft) S 181 0 min 0,000 mm 0,0 UV-I 54 W/m -4,3 C -3,8 C 4,8 km/h (1 Bft) 100,00 %
05.01.2016 13:15 -3,6 C 96 % 1000,0 hPa 0,0 l/m 1,1 km/h (1 Bft) S-SO 160 0 min 0,000 mm 0,0 UV-I 53 W/m -4,1 C -3,6 C 4,8 km/h (1 Bft) 100,00 %
05.01.2016 13:20 -3,5 C 96 % 1000,0 hPa 0,0 l/m 3,3 km/h (1 Bft) S-SO 159 0 min 0,000 mm 0,0 UV-I 58 W/m -4,0 C -3,5 C 6,4 km/h (2 Bft) 99,17 %
05.01.2016 13:25 -3,4 C 96 % 1000,0 hPa 0,0 l/m 3,8 km/h (1 Bft) SO 143 0 min 0,000 mm 0,0 UV-I 64 W/m -3,9 C -3,4 C 8,0 km/h (2 Bft) 99,17 %
05.01.2016 13:30 -3,4 C 95 % 999,9 hPa 0,0 l/m 2,5 km/h (1 Bft) SO 144 0 min 0,000 mm 0,0 UV-I 68 W/m -4,1 C -3,4 C 4,8 km/h (1 Bft) 100,00 %
05.01.2016 13:35 -3,3 C 95 % 999,9 hPa 0,0 l/m 2,3 km/h (1 Bft) SO 146 0 min 0,000 mm 0,0 UV-I 66 W/m -4,0 C -3,3 C 4,8 km/h (1 Bft) 100,00 %
05.01.2016 13:40 -3,2 C 95 % 1000,0 hPa 0,0 l/m 1,1 km/h (1 Bft) SO 145 0 min 0,000 mm 0,0 UV-I 68 W/m -3,9 C -3,2 C 3,2 km/h (1 Bft) 100,00 %
05.01.2016 13:45 -3,1 C 95 % 1000,0 hPa 0,0 l/m 1,0 km/h (0 Bft) SO 145 0 min 0,000 mm 0,0 UV-I 61 W/m -3,8 C -3,1 C 3,2 km/h (1 Bft) 98,20 %
05.01.2016 13:50 -3,0 C 95 % 1000,0 hPa 0,0 l/m 0,3 km/h (0 Bft) SO 145 0 min 0,000 mm 0,0 UV-I 58 W/m -3,7 C -3,0 C 1,6 km/h (1 Bft) 99,19 %
05.01.2016 13:55 -2,8 C 95 % 1000,0 hPa 0,0 l/m 0,1 km/h (0 Bft) SO 145 0 min 0,000 mm 0,0 UV-I 61 W/m -3,5 C -2,8 C 1,6 km/h (1 Bft) 99,06 %
05.01.2016 14:00 -2,7 C 94 % 1000,0 hPa 0,0 l/m 0,0 km/h (0 Bft) SO 145 0 min 0,025 mm 0,0 UV-I 62 W/m -3,5 C -2,7 C 0,0 km/h (0 Bft) 99,19 %
05.01.2016 14:05 -2,6 C 94 % 1000,2 hPa 0,0 l/m 0,7 km/h (0 Bft) SW 221 0 min 0,000 mm 0,0 UV-I 63 W/m -3,4 C -2,6 C 3,2 km/h (1 Bft) 98,43 %
05.01.2016 14:10 -2,6 C 93 % 1000,5 hPa 0,0 l/m 4,3 km/h (1 Bft) W 265 0 min 0,000 mm 0,0 UV-I 56 W/m -3,6 C -2,6 C 6,4 km/h (2 Bft) 95,50 %
05.01.2016 14:15 -2,5 C 93 % 1000,5 hPa 0,0 l/m 5,7 km/h (1 Bft) W-SW 258 0 min 0,000 mm 0,0 UV-I 46 W/m -3,5 C -2,5 C 9,7 km/h (2 Bft) 97,46 %
05.01.2016 14:20 -2,6 C 93 % 1000,2 hPa 0,0 l/m 1,4 km/h (1 Bft) W-SW 258 0 min 0,000 mm 0,0 UV-I 44 W/m -3,6 C -2,6 C 4,8 km/h (1 Bft) 95,65 %
05.01.2016 14:25 -2,4 C 93 % 1000,2 hPa 0,0 l/m 1,1 km/h (1 Bft) W 259 0 min 0,000 mm 0,0 UV-I 45 W/m -3,4 C -2,4 C 3,2 km/h (1 Bft) 95,93 %
05.01.2016 14:30 -2,4 C 93 % 1000,0 hPa 0,0 l/m 3,1 km/h (1 Bft) O-SO 103 0 min 0,000 mm 0,0 UV-I 46 W/m -3,4 C -2,4 C 4,8 km/h (1 Bft) 97,44 %
05.01.2016 14:35 -2,3 C 93 % 1000,2 hPa 0,0 l/m 2,0 km/h (1 Bft) O-SO 103 0 min 0,000 mm 0,0 UV-I 46 W/m -3,3 C -2,3 C 4,8 km/h (1 Bft) 96,33 %
05.01.2016 14:40 -2,3 C 93 % 1000,4 hPa 0,0 l/m 0,9 km/h (0 Bft) O 98 0 min 0,000 mm 0,0 UV-I 48 W/m -3,3 C -2,3 C 3,2 km/h (1 Bft) 99,19 %
05.01.2016 14:45 -2,3 C 93 % 1000,4 hPa 0,0 l/m 0,5 km/h (0 Bft) O 98 0 min 0,000 mm 0,0 UV-I 47 W/m -3,3 C -2,3 C 3,2 km/h (1 Bft) 100,00 %
05.01.2016 14:50 -2,3 C 93 % 1000,7 hPa 0,0 l/m 1,9 km/h (1 Bft) SW 231 0 min 0,000 mm 0,0 UV-I 44 W/m -3,3 C -2,3 C 6,4 km/h (2 Bft) 97,66 %
05.01.2016 14:55 -2,2 C 93 % 1000,7 hPa 0,0 l/m 3,4 km/h (1 Bft) SW 215 0 min 0,000 mm 0,0 UV-I 45 W/m -3,2 C -2,2 C 6,4 km/h (2 Bft) 99,17 %
05.01.2016 15:00 -2,2 C 93 % 1000,7 hPa 0,0 l/m 1,8 km/h (1 Bft) SW 225 0 min 0,025 mm 0,0 UV-I 49 W/m -3,2 C -2,2 C 3,2 km/h (1 Bft) 98,90 %
05.01.2016 15:05 -2,2 C 93 % 1000,7 hPa 0,0 l/m 0,3 km/h (0 Bft) SW 225 0 min 0,000 mm 0,0 UV-I 48 W/m -3,2 C -2,2 C 1,6 km/h (1 Bft) 97,78 %
05.01.2016 15:10 -2,3 C 93 % 1000,7 hPa 0,0 l/m 0,2 km/h (0 Bft) SW 225 0 min 0,000 mm 0,0 UV-I 47 W/m -3,3 C -2,3 C 1,6 km/h (1 Bft) 100,00 %
05.01.2016 15:15 -2,3 C 93 % 1000,7 hPa 0,0 l/m 1,2 km/h (1 Bft) SW 225 0 min 0,000 mm 0,0 UV-I 46 W/m -3,3 C -2,3 C 3,2 km/h (1 Bft) 100,00 %
05.01.2016 15:20 -2,3 C 93 % 1000,8 hPa 0,0 l/m 1,2 km/h (1 Bft) SW 225 0 min 0,000 mm 0,0 UV-I 42 W/m -3,3 C -2,3 C 3,2 km/h (1 Bft) 98,33 %
05.01.2016 15:25 -2,3 C 93 % 1000,7 hPa 0,0 l/m 1,9 km/h (1 Bft) SW 225 0 min 0,000 mm 0,0 UV-I 32 W/m -3,3 C -2,3 C 4,8 km/h (1 Bft) 100,00 %
05.01.2016 15:30 -2,4 C 92 % 1000,8 hPa 0,0 l/m 1,1 km/h (1 Bft) SW 229 0 min 0,000 mm 0,0 UV-I 22 W/m -3,5 C -2,4 C 3,2 km/h (1 Bft) 98,33 %
05.01.2016 15:35 -2,6 C 93 % 1000,8 hPa 0,0 l/m 2,6 km/h (1 Bft) N-NO 33 0 min 0,000 mm 0,0 UV-I 17 W/m -3,6 C -2,6 C 4,8 km/h (1 Bft) 100,00 %
05.01.2016 15:40 -2,6 C 94 % 1000,8 hPa 0,0 l/m 4,5 km/h (1 Bft) NO 43 0 min 0,000 mm 0,0 UV-I 15 W/m -3,4 C -2,6 C 6,4 km/h (2 Bft) 100,00 %
05.01.2016 15:45 -2,6 C 94 % 1000,7 hPa 0,0 l/m 5,5 km/h (1 Bft) NO 55 0 min 0,000 mm 0,0 UV-I 15 W/m -3,4 C -2,6 C 8,0 km/h (2 Bft) 99,12 %
05.01.2016 15:50 -2,6 C 94 % 1000,8 hPa 0,0 l/m 3,4 km/h (1 Bft) NO 55 0 min 0,000 mm 0,0 UV-I 17 W/m -3,4 C -2,6 C 4,8 km/h (1 Bft) 99,13 %
05.01.2016 15:55 -2,5 C 94 % 1000,9 hPa 0,0 l/m 2,9 km/h (1 Bft) NO 48 0 min 0,000 mm 0,0 UV-I 15 W/m -3,3 C -2,5 C 6,4 km/h (2 Bft) 100,00 %
05.01.2016 16:00 -2,7 C 94 % 1000,8 hPa 0,0 l/m 6,4 km/h (2 Bft) NO 38 0 min 0,000 mm 0,0 UV-I 12 W/m -3,5 C -2,7 C 9,7 km/h (2 Bft) 97,50 %
05.01.2016 16:05 -2,7 C 94 % 1001,0 hPa 0,0 l/m 6,1 km/h (2 Bft) O-NO 57 0 min 0,000 mm 0,0 UV-I 8 W/m -3,5 C -2,7 C 9,7 km/h (2 Bft) 97,46 %
05.01.2016 16:10 -2,7 C 94 % 1001,0 hPa 0,0 l/m 7,7 km/h (2 Bft) O 87 0 min 0,000 mm 0,0 UV-I 7 W/m -3,5 C -4,2 C 11,3 km/h (2 Bft) 94,34 %
05.01.2016 16:15 -2,7 C 94 % 1001,0 hPa 0,0 l/m 7,7 km/h (2 Bft) O-NO 65 0 min 0,000 mm 0,0 UV-I 6 W/m -3,5 C -4,2 C 11,3 km/h (2 Bft) 96,67 %
05.01.2016 16:20 -2,8 C 94 % 1001,1 hPa 0,0 l/m 7,9 km/h (2 Bft) O-NO 65 0 min 0,000 mm 0,0 UV-I 2 W/m -3,6 C -4,5 C 11,3 km/h (2 Bft) 97,58 %
05.01.2016 16:25 -2,9 C 94 % 1001,2 hPa 0,0 l/m 5,0 km/h (1 Bft) O-NO 70 0 min 0,000 mm 0,0 UV-I 0 W/m -3,7 C -2,9 C 8,0 km/h (2 Bft) 97,30 %
05.01.2016 16:30 -3,0 C 94 % 1001,1 hPa 0,0 l/m 4,2 km/h (1 Bft) O-NO 67 0 min 0,000 mm 0,0 UV-I 0 W/m -3,8 C -3,0 C 6,4 km/h (2 Bft) 98,39 %
05.01.2016 16:35 -3,0 C 95 % 1001,1 hPa 0,0 l/m 5,3 km/h (1 Bft) O-NO 58 0 min 0,000 mm 0,0 UV-I 0 W/m -3,7 C -3,0 C 9,7 km/h (2 Bft) 99,13 %
05.01.2016 16:40 -2,9 C 95 % 1001,2 hPa 0,0 l/m 6,3 km/h (2 Bft) O-NO 74 0 min 0,000 mm 0,0 UV-I 0 W/m -3,6 C -2,9 C 11,3 km/h (2 Bft) 100,00 %
05.01.2016 16:45 -2,9 C 95 % 1001,3 hPa 0,0 l/m 6,7 km/h (2 Bft) O-NO 67 0 min 0,000 mm 0,0 UV-I 0 W/m -3,6 C -3,2 C 11,3 km/h (2 Bft) 97,25 %
05.01.2016 16:50 -3,0 C 94 % 1001,3 hPa 0,0 l/m 7,8 km/h (2 Bft) O-NO 57 0 min 0,000 mm 0,0 UV-I 0 W/m -3,8 C -4,6 C 11,3 km/h (2 Bft) 100,00 %
05.01.2016 16:55 -3,0 C 95 % 1001,3 hPa 0,0 l/m 6,0 km/h (2 Bft) O-NO 59 0 min 0,000 mm 0,0 UV-I 0 W/m -3,7 C -3,0 C 9,7 km/h (2 Bft) 99,17 %
05.01.2016 17:00 -3,0 C 95 % 1001,3 hPa 0,0 l/m 6,9 km/h (2 Bft) NO 48 0 min 0,000 mm 0,0 UV-I 0 W/m -3,7 C -3,6 C 12,9 km/h (3 Bft) 99,15 %
05.01.2016 17:05 -3,0 C 94 % 1001,3 hPa 0,0 l/m 7,7 km/h (2 Bft) O-NO 70 0 min 0,000 mm 0,0 UV-I 0 W/m -3,8 C -4,5 C 12,9 km/h (3 Bft) 100,00 %
05.01.2016 17:15 -3,2 C 94 % 1001,4 hPa 0,0 l/m 7,8 km/h (2 Bft) O 82 0 min 0,000 mm 0,0 UV-I 0 W/m -4,0 C -4,8 C 9,7 km/h (2 Bft) 99,00 %
05.01.2016 17:20 -3,2 C 95 % 1001,6 hPa 0,0 l/m 6,8 km/h (2 Bft) NO 49 0 min 0,000 mm 0,0 UV-I 0 W/m -3,9 C -3,6 C 12,9 km/h (3 Bft) 99,06 %
05.01.2016 17:25 -3,3 C 95 % 1001,6 hPa 0,0 l/m 9,5 km/h (2 Bft) O-NO 68 0 min 0,000 mm 0,0 UV-I 0 W/m -4,0 C -6,6 C 16,1 km/h (3 Bft) 99,13 %
05.01.2016 17:30 -3,3 C 95 % 1001,6 hPa 0,0 l/m 6,7 km/h (2 Bft) O-SO 107 0 min 0,000 mm 0,0 UV-I 0 W/m -4,0 C -3,6 C 12,9 km/h (3 Bft) 99,06 %
05.01.2016 17:35 -3,3 C 95 % 1001,6 hPa 0,0 l/m 7,1 km/h (2 Bft) O-NO 67 0 min 0,000 mm 0,0 UV-I 0 W/m -4,0 C -4,1 C 11,3 km/h (2 Bft) 98,52 %
05.01.2016 17:40 -3,2 C 96 % 1001,6 hPa 0,0 l/m 6,8 km/h (2 Bft) O-NO 67 0 min 0,000 mm 0,0 UV-I 0 W/m -3,7 C -3,6 C 11,3 km/h (2 Bft) 100,00 %
05.01.2016 17:45 -3,2 C 96 % 1001,6 hPa 0,0 l/m 8,5 km/h (2 Bft) NO 51 0 min 0,000 mm 0,0 UV-I 0 W/m -3,7 C -5,5 C 14,5 km/h (3 Bft) 98,29 %
05.01.2016 17:50 -3,2 C 96 % 1001,7 hPa 0,0 l/m 7,2 km/h (2 Bft) NO 44 0 min 0,000 mm 0,0 UV-I 0 W/m -3,7 C -4,1 C 12,9 km/h (3 Bft) 99,17 %
05.01.2016 17:55 -3,2 C 96 % 1001,7 hPa 0,0 l/m 6,8 km/h (2 Bft) O-NO 74 0 min 0,000 mm 0,0 UV-I 0 W/m -3,7 C -3,6 C 11,3 km/h (2 Bft) 99,17 %
05.01.2016 18:00 -3,2 C 96 % 1001,8 hPa 0,0 l/m 8,4 km/h (2 Bft) NO 46 0 min 0,000 mm 0,0 UV-I 0 W/m -3,7 C -5,4 C 14,5 km/h (3 Bft) 99,13 %
05.01.2016 18:05 -3,2 C 96 % 1001,8 hPa 0,0 l/m 8,3 km/h (2 Bft) O-NO 59 0 min 0,000 mm 0,0 UV-I 0 W/m -3,7 C -5,3 C 14,5 km/h (3 Bft) 96,55 %
05.01.2016 18:10 -3,2 C 96 % 1001,7 hPa 0,0 l/m 8,0 km/h (2 Bft) NO 38 0 min 0,000 mm 0,0 UV-I 0 W/m -3,7 C -5,0 C 12,9 km/h (3 Bft) 95,83 %
05.01.2016 18:15 -3,3 C 95 % 1001,7 hPa 0,0 l/m 6,6 km/h (2 Bft) O-NO 60 0 min 0,000 mm 0,0 UV-I 0 W/m -4,0 C -3,5 C 14,5 km/h (3 Bft) 97,25 %
05.01.2016 18:20 -3,3 C 96 % 1001,9 hPa 0,0 l/m 7,0 km/h (2 Bft) NO 38 0 min 0,000 mm 0,0 UV-I 0 W/m -3,8 C -4,0 C 11,3 km/h (2 Bft) 97,52 %
05.01.2016 18:25 -3,3 C 95 % 1002,0 hPa 0,0 l/m 7,2 km/h (2 Bft) O-NO 75 0 min 0,000 mm 0,0 UV-I 0 W/m -4,0 C -4,2 C 11,3 km/h (2 Bft) 98,33 %
05.01.2016 18:30 -3,3 C 95 % 1002,0 hPa 0,0 l/m 7,6 km/h (2 Bft) O-NO 64 0 min 0,000 mm 0,0 UV-I 0 W/m -4,0 C -4,7 C 12,9 km/h (3 Bft) 97,46 %
05.01.2016 18:35 -3,3 C 95 % 1002,0 hPa 0,0 l/m 6,4 km/h (2 Bft) O-NO 63 0 min 0,000 mm 0,0 UV-I 0 W/m -4,0 C -3,2 C 9,7 km/h (2 Bft) 97,25 %
05.01.2016 18:40 -3,3 C 95 % 1002,0 hPa 0,0 l/m 6,3 km/h (2 Bft) O-NO 74 0 min 0,000 mm 0,0 UV-I 0 W/m -4,0 C -3,3 C 9,7 km/h (2 Bft) 98,37 %
05.01.2016 18:45 -3,3 C 95 % 1002,2 hPa 0,0 l/m 3,1 km/h (1 Bft) O 84 0 min 0,000 mm 0,0 UV-I 0 W/m -4,0 C -3,3 C 6,4 km/h (2 Bft) 100,00 %
05.01.2016 18:50 -3,4 C 95 % 1002,1 hPa 0,0 l/m 4,4 km/h (1 Bft) O-NO 68 0 min 0,000 mm 0,0 UV-I 0 W/m -4,1 C -3,4 C 11,3 km/h (2 Bft) 98,29 %
05.01.2016 18:55 -3,3 C 95 % 1002,2 hPa 0,0 l/m 5,7 km/h (1 Bft) N-NO 30 0 min 0,000 mm 0,0 UV-I 0 W/m -4,0 C -3,3 C 11,3 km/h (2 Bft) 100,00 %
05.01.2016 19:00 -3,3 C 95 % 1002,0 hPa 0,0 l/m 4,9 km/h (1 Bft) N 9 0 min 0,000 mm 0,0 UV-I 0 W/m -4,0 C -3,3 C 12,9 km/h (3 Bft) 100,00 %
05.01.2016 19:05 -3,1 C 96 % 1001,9 hPa 0,0 l/m 8,9 km/h (2 Bft) NO 42 0 min 0,000 mm 0,0 UV-I 0 W/m -3,6 C -5,8 C 16,1 km/h (3 Bft) 98,33 %
05.01.2016 19:10 -3,2 C 95 % 1002,0 hPa 0,0 l/m 10,8 km/h (2 Bft) NO 52 0 min 0,000 mm 0,0 UV-I 0 W/m -3,9 C -7,7 C 14,5 km/h (3 Bft) 100,00 %
05.01.2016 19:15 -3,3 C 95 % 1001,9 hPa 0,0 l/m 12,6 km/h (3 Bft) O-NO 61 0 min 0,000 mm 0,0 UV-I 0 W/m -4,0 C -9,3 C 17,7 km/h (3 Bft) 98,31 %
05.01.2016 19:20 -3,4 C 95 % 1002,0 hPa 0,0 l/m 13,4 km/h (3 Bft) NO 48 0 min 0,000 mm 0,0 UV-I 0 W/m -4,1 C -10,0 C 19,3 km/h (3 Bft) 98,37 %
05.01.2016 19:25 -3,5 C 95 % 1002,1 hPa 0,0 l/m 9,2 km/h (2 Bft) O 94 0 min 0,000 mm 0,0 UV-I 0 W/m -4,2 C -6,6 C 16,1 km/h (3 Bft) 99,06 %
05.01.2016 19:30 -3,6 C 94 % 1002,2 hPa 0,0 l/m 8,0 km/h (2 Bft) NO 55 0 min 0,000 mm 0,0 UV-I 0 W/m -4,4 C -5,4 C 14,5 km/h (3 Bft) 100,00 %
05.01.2016 19:35 -3,6 C 95 % 1002,4 hPa 0,0 l/m 4,7 km/h (1 Bft) S 173 0 min 0,000 mm 0,0 UV-I 0 W/m -4,3 C -3,6 C 14,5 km/h (3 Bft) 100,00 %
05.01.2016 19:40 -3,6 C 95 % 1002,2 hPa 0,0 l/m 3,3 km/h (1 Bft) SO 146 0 min 0,000 mm 0,0 UV-I 0 W/m -4,3 C -3,6 C 6,4 km/h (2 Bft) 99,17 %
05.01.2016 19:45 -3,7 C 95 % 1002,0 hPa 0,0 l/m 5,3 km/h (1 Bft) O-NO 63 0 min 0,000 mm 0,0 UV-I 0 W/m -4,4 C -3,7 C 11,3 km/h (2 Bft) 100,00 %
05.01.2016 19:50 -3,7 C 95 % 1002,0 hPa 0,0 l/m 7,7 km/h (2 Bft) O-NO 72 0 min 0,000 mm 0,0 UV-I 0 W/m -4,4 C -5,2 C 12,9 km/h (3 Bft) 99,15 %
05.01.2016 19:55 -3,7 C 95 % 1002,1 hPa 0,0 l/m 6,3 km/h (2 Bft) O-NO 63 0 min 0,000 mm 0,0 UV-I 0 W/m -4,4 C -3,7 C 12,9 km/h (3 Bft) 100,00 %
05.01.2016 20:00 -3,7 C 95 % 1002,2 hPa 0,0 l/m 3,3 km/h (1 Bft) NO 50 0 min 0,000 mm 0,0 UV-I 0 W/m -4,4 C -3,7 C 8,0 km/h (2 Bft) 98,33 %
05.01.2016 20:05 -3,7 C 95 % 1002,2 hPa 0,0 l/m 5,5 km/h (1 Bft) NO 39 0 min 0,000 mm 0,0 UV-I 0 W/m -4,4 C -3,7 C 9,7 km/h (2 Bft) 99,17 %
05.01.2016 20:10 -3,7 C 95 % 1002,1 hPa 0,0 l/m 8,7 km/h (2 Bft) O-NO 76 0 min 0,000 mm 0,0 UV-I 0 W/m -4,4 C -6,3 C 16,1 km/h (3 Bft) 96,30 %
05.01.2016 20:15 -3,8 C 95 % 1002,2 hPa 0,0 l/m 4,4 km/h (1 Bft) N-NO 19 0 min 0,000 mm 0,0 UV-I 0 W/m -4,5 C -3,8 C 12,9 km/h (3 Bft) 97,46 %
05.01.2016 20:20 -3,8 C 95 % 1002,1 hPa 0,0 l/m 5,6 km/h (1 Bft) NO 46 0 min 0,000 mm 0,0 UV-I 0 W/m -4,5 C -3,8 C 8,0 km/h (2 Bft) 96,61 %
05.01.2016 20:25 -3,8 C 95 % 1002,2 hPa 0,0 l/m 5,1 km/h (1 Bft) O 88 0 min 0,000 mm 0,0 UV-I 0 W/m -4,5 C -3,8 C 8,0 km/h (2 Bft) 97,37 %
05.01.2016 20:30 -3,8 C 95 % 1002,2 hPa 0,0 l/m 3,7 km/h (1 Bft) O-NO 70 0 min 0,000 mm 0,0 UV-I 0 W/m -4,5 C -3,8 C 8,0 km/h (2 Bft) 97,67 %
05.01.2016 20:40 -3,8 C 95 % 1002,2 hPa 0,0 l/m 3,5 km/h (1 Bft) O-NO 78 0 min 0,000 mm 0,0 UV-I 0 W/m -4,5 C -3,8 C 4,8 km/h (1 Bft) 97,75 %
05.01.2016 20:45 -3,8 C 95 % 1002,2 hPa 0,0 l/m 3,6 km/h (1 Bft) O 90 0 min 0,000 mm 0,0 UV-I 0 W/m -4,5 C -3,8 C 11,3 km/h (2 Bft) 100,00 %
05.01.2016 20:50 -3,8 C 95 % 1002,3 hPa 0,0 l/m 2,1 km/h (1 Bft) O-SO 107 0 min 0,000 mm 0,0 UV-I 0 W/m -4,5 C -3,8 C 11,3 km/h (2 Bft) 98,37 %
05.01.2016 20:55 -3,8 C 95 % 1002,4 hPa 0,0 l/m 0,8 km/h (0 Bft) O-SO 107 0 min 0,000 mm 0,0 UV-I 0 W/m -4,5 C -3,8 C 3,2 km/h (1 Bft) 100,00 %
05.01.2016 21:00 -3,8 C 95 % 1002,5 hPa 0,0 l/m 0,4 km/h (0 Bft) O-SO 107 0 min 0,000 mm 0,0 UV-I 0 W/m -4,5 C -3,8 C 3,2 km/h (1 Bft) 99,13 %
05.01.2016 21:05 -3,8 C 95 % 1002,4 hPa 0,0 l/m 0,7 km/h (0 Bft) O-SO 107 0 min 0,000 mm 0,0 UV-I 0 W/m -4,5 C -3,8 C 3,2 km/h (1 Bft) 99,21 %
05.01.2016 21:10 -3,8 C 95 % 1002,4 hPa 0,0 l/m 1,1 km/h (1 Bft) O-SO 107 0 min 0,000 mm 0,0 UV-I 0 W/m -4,5 C -3,8 C 3,2 km/h (1 Bft) 100,00 %
05.01.2016 21:15 -3,7 C 95 % 1002,4 hPa 0,0 l/m 3,0 km/h (1 Bft) O-NO 67 0 min 0,000 mm 0,0 UV-I 0 W/m -4,4 C -3,7 C 6,4 km/h (2 Bft) 100,00 %
05.01.2016 21:20 -3,8 C 94 % 1002,4 hPa 0,0 l/m 4,6 km/h (1 Bft) O-NO 64 0 min 0,000 mm 0,0 UV-I 0 W/m -4,6 C -3,8 C 8,0 km/h (2 Bft) 99,13 %
05.01.2016 21:25 -3,8 C 94 % 1002,5 hPa 0,0 l/m 4,7 km/h (1 Bft) O-NO 63 0 min 0,000 mm 0,0 UV-I 0 W/m -4,6 C -3,8 C 9,7 km/h (2 Bft) 100,00 %
05.01.2016 21:30 -3,9 C 94 % 1002,5 hPa 0,0 l/m 1,9 km/h (1 Bft) O-NO 63 0 min 0,000 mm 0,0 UV-I 0 W/m -4,7 C -3,9 C 4,8 km/h (1 Bft) 98,29 %
05.01.2016 21:35 -4,1 C 94 % 1002,5 hPa 0,0 l/m 1,7 km/h (1 Bft) O-NO 63 0 min 0,000 mm 0,0 UV-I 0 W/m -4,9 C -4,1 C 4,8 km/h (1 Bft) 100,00 %
05.01.2016 21:40 -4,1 C 95 % 1002,4 hPa 0,0 l/m 4,8 km/h (1 Bft) O-NO 63 0 min 0,000 mm 0,0 UV-I 0 W/m -4,8 C -4,1 C 8,0 km/h (2 Bft) 100,00 %
05.01.2016 21:45 -4,3 C 94 % 1002,4 hPa 0,0 l/m 5,1 km/h (1 Bft) O-NO 69 0 min 0,000 mm 0,0 UV-I 0 W/m -5,1 C -4,3 C 8,0 km/h (2 Bft) 100,00 %
05.01.2016 21:50 -4,3 C 95 % 1002,5 hPa 0,0 l/m 5,3 km/h (1 Bft) NO 44 0 min 0,000 mm 0,0 UV-I 0 W/m -5,0 C -4,3 C 8,0 km/h (2 Bft) 98,17 %
05.01.2016 21:55 -4,4 C 94 % 1002,5 hPa 0,0 l/m 1,2 km/h (1 Bft) NO 44 0 min 0,000 mm 0,0 UV-I 0 W/m -5,2 C -4,4 C 4,8 km/h (1 Bft) 99,15 %
05.01.2016 22:00 -4,6 C 94 % 1002,6 hPa 0,0 l/m 3,5 km/h (1 Bft) NO 51 0 min 0,000 mm 0,0 UV-I 0 W/m -5,4 C -4,6 C 4,8 km/h (1 Bft) 98,37 %
05.01.2016 22:05 -4,6 C 95 % 1002,6 hPa 0,0 l/m 4,5 km/h (1 Bft) NO 49 0 min 0,000 mm 0,0 UV-I 0 W/m -5,3 C -4,6 C 8,0 km/h (2 Bft) 97,46 %
05.01.2016 22:10 -4,6 C 95 % 1002,6 hPa 0,0 l/m 1,0 km/h (0 Bft) N-NO 30 0 min 0,000 mm 0,0 UV-I 0 W/m -5,3 C -4,6 C 3,2 km/h (1 Bft) 98,29 %
05.01.2016 22:15 -4,6 C 95 % 1002,7 hPa 0,0 l/m 0,1 km/h (0 Bft) N-NO 30 0 min 0,000 mm 0,0 UV-I 0 W/m -5,3 C -4,6 C 1,6 km/h (1 Bft) 97,32 %
05.01.2016 22:20 -4,4 C 95 % 1002,7 hPa 0,0 l/m 3,1 km/h (1 Bft) NO 50 0 min 0,000 mm 0,0 UV-I 0 W/m -5,1 C -4,4 C 4,8 km/h (1 Bft) 97,52 %
05.01.2016 22:25 -4,3 C 95 % 1002,6 hPa 0,0 l/m 2,8 km/h (1 Bft) NO 49 0 min 0,000 mm 0,0 UV-I 0 W/m -5,0 C -4,3 C 4,8 km/h (1 Bft) 96,40 %
05.01.2016 22:30 -4,3 C 95 % 1002,6 hPa 0,0 l/m 2,8 km/h (1 Bft) NO 49 0 min 0,000 mm 0,0 UV-I 0 W/m -5,0 C -4,3 C 4,8 km/h (1 Bft) 96,85 %
05.01.2016 22:35 -4,3 C 95 % 1002,6 hPa 0,0 l/m 2,9 km/h (1 Bft) NO 52 0 min 0,000 mm 0,0 UV-I 0 W/m -5,0 C -4,3 C 6,4 km/h (2 Bft) 96,00 %
05.01.2016 22:40 -4,3 C 95 % 1002,5 hPa 0,0 l/m 4,6 km/h (1 Bft) O 80 0 min 0,000 mm 0,0 UV-I 0 W/m -5,0 C -4,3 C 8,0 km/h (2 Bft) 94,70 %
05.01.2016 22:45 -4,3 C 95 % 1002,5 hPa 0,0 l/m 4,8 km/h (1 Bft) NO 55 0 min 0,000 mm 0,0 UV-I 0 W/m -5,0 C -4,3 C 9,7 km/h (2 Bft) 99,08 %
05.01.2016 22:50 -4,3 C 94 % 1002,5 hPa 0,0 l/m 2,5 km/h (1 Bft) O-NO 68 0 min 0,000 mm 0,0 UV-I 0 W/m -5,1 C -4,3 C 6,4 km/h (2 Bft) 99,21 %
05.01.2016 22:55 -4,4 C 94 % 1002,5 hPa 0,0 l/m 5,1 km/h (1 Bft) O-NO 71 0 min 0,000 mm 0,0 UV-I 0 W/m -5,2 C -4,4 C 6,4 km/h (2 Bft) 99,11 %
05.01.2016 23:00 -4,5 C 94 % 1002,6 hPa 0,0 l/m 5,6 km/h (1 Bft) NO 55 0 min 0,000 mm 0,0 UV-I 0 W/m -5,3 C -4,5 C 8,0 km/h (2 Bft) 100,00 %
05.01.2016 23:05 -4,8 C 94 % 1002,6 hPa 0,0 l/m 4,8 km/h (1 Bft) NO 52 0 min 0,000 mm 0,0 UV-I 0 W/m -5,6 C -4,8 C 8,0 km/h (2 Bft) 99,00 %
05.01.2016 23:10 -4,9 C 94 % 1002,7 hPa 0,0 l/m 2,5 km/h (1 Bft) NO 54 0 min 0,000 mm 0,0 UV-I 0 W/m -5,7 C -4,9 C 4,8 km/h (1 Bft) 100,00 %
05.01.2016 23:15 -5,1 C 95 % 1002,6 hPa 0,0 l/m 1,6 km/h (1 Bft) O-SO 105 0 min 0,000 mm 0,0 UV-I 0 W/m -5,8 C -5,1 C 4,8 km/h (1 Bft) 99,08 %
05.01.2016 23:20 -5,3 C 94 % 1002,8 hPa 0,0 l/m 1,8 km/h (1 Bft) O 80 0 min 0,000 mm 0,0 UV-I 0 W/m -6,1 C -5,3 C 4,8 km/h (1 Bft) 100,00 %
05.01.2016 23:25 -5,2 C 95 % 1002,8 hPa 0,0 l/m 2,9 km/h (1 Bft) O 80 0 min 0,000 mm 0,0 UV-I 0 W/m -5,9 C -5,2 C 4,8 km/h (1 Bft) 100,00 %
05.01.2016 23:30 -5,2 C 95 % 1002,8 hPa 0,0 l/m 3,5 km/h (1 Bft) O-NO 71 0 min 0,000 mm 0,0 UV-I 0 W/m -5,9 C -5,2 C 6,4 km/h (2 Bft) 100,00 %
05.01.2016 23:35 -5,2 C 95 % 1002,6 hPa 0,0 l/m 5,4 km/h (1 Bft) O-NO 68 0 min 0,000 mm 0,0 UV-I 0 W/m -5,9 C -5,2 C 9,7 km/h (2 Bft) 100,00 %
05.01.2016 23:40 -5,1 C 95 % 1002,6 hPa 0,0 l/m 6,7 km/h (2 Bft) NO 48 0 min 0,000 mm 0,0 UV-I 0 W/m -5,8 C -5,4 C 11,3 km/h (2 Bft) 100,00 %
05.01.2016 23:45 -5,2 C 95 % 1002,8 hPa 0,0 l/m 2,5 km/h (1 Bft) O-NO 59 0 min 0,000 mm 0,0 UV-I 0 W/m -5,9 C -5,2 C 8,0 km/h (2 Bft) 97,50 %
05.01.2016 23:50 -5,4 C 95 % 1003,0 hPa 0,0 l/m 1,4 km/h (1 Bft) O-NO 59 0 min 0,000 mm 0,0 UV-I 0 W/m -6,1 C -5,4 C 4,8 km/h (1 Bft) 100,00 %
05.01.2016 23:55 -5,4 C 95 % 1003,0 hPa 0,0 l/m 0,5 km/h (0 Bft) O-NO 59 0 min 0,000 mm 0,0 UV-I 0 W/m -6,1 C -5,4 C 3,2 km/h (1 Bft) 100,00 %
_ Min-Zeit 08:05 07:15 05:30 - 06:05 - - - - - - 08:00 19:20 06:05 16:10
Minimum _ -9,0 C 92 % 998,2 hPa - 0,0 km/h (0 Bft) - - - - - - -9,8 C -10,0 C 0,0 km/h (0 Bft) 94,34 %
_ Max-Zeit 14:55 00:10 23:50 00:00 19:20 - - 00:00 11:00 00:00 09:55 14:55 14:55 19:20 00:10
Maximum _ -2,2 C 96 % 1003,0 hPa 0,0 l/m 13,4 km/h
NO (3 Bft)
- - 0 min 0,026 mm 0,0 UV-I 112 W/m -3,2 C -2,2 C 19,3 km/h
NO (3 Bft)
100,00 %
Durchschnitt _ -4,7 C 95 % 1000,2 hPa #0,0 l/m 3,3 km/h (1 Bft) O-NO - #0 min. #0,152 mm 0,0 UV-I 54 W/m -5,4 C -5,0 C 6,1 km/h (2 Bft) 98,63 %